Theta_e
340 338 338 345 344 343 342 343 342 343 345 343 345 347 348 348 348 347 348 348 348 347 346 346 346 344 344 344 342 343 342 342 342 341 341 341 340 341 344 347 348 348 349 349 348 349 348 349 348 347 347 347 347 347 347 347 348 347 347 346 346 346 346 346 345 344 344 344 345 344 344 345 345 345 344 343 342 340 339 338 338 336 335 338 341
339 337 336 338 345 342 342 342 342 344 346 346 347 347 348 348 347 348 347 348 347 347 347 346 345 343 343 342 342 342 341 341 341 340 341 341 341 341 342 342 344 347 348 347 347 348 348 347 346 346 346 347 346 346 346 346 346 346 345 345 345 345 344 344 343 342 342 343 343 342 343 344 344 343 343 342 341 340 339 338 337 333 332 337 338
339 337 336 338 344 344 343 342 342 346 346 347 347 347 347 347 347 348 347 347 347 347 347 346 345 344 344 343 342 341 341 340 340 341 340 339 339 340 339 340 341 343 346 346 346 346 345 346 345 345 345 345 346 345 345 345 345 345 345 345 344 344 343 342 342 341 341 340 340 340 340 342 341 341 341 340 339 339 338 338 336 336 334 337 336
338 336 335 339 343 345 344 343 348 347 347 347 347 348 347 348 346 348 347 347 346 346 346 346 346 345 341 341 343 343 342 340 339 340 341 340 340 340 340 340 340 340 342 343 343 344 343 342 342 343 344 344 345 345 345 344 344 344 344 344 344 343 342 342 341 341 340 339 339 337 336 331 336 339 339 338 337 336 336 335 334 334 335 335 336
337 336 335 335 335 342 344 346 347 347 347 347 347 347 347 347 347 347 347 346 345 344 345 345 343 342 342 342 342 342 342 342 342 342 342 341 340 340 341 341 340 340 340 341 340 342 341 341 343 344 345 344 343 343 344 344 344 344 344 344 343 342 341 341 340 339 338 338 337 335 331 331 331 337 338 338 335 333 334 334 333 333 332 333 334
337 335 335 333 334 337 344 346 347 347 347 347 347 347 346 346 347 347 346 345 344 342 344 343 341 341 341 341 338 339 338 339 342 342 339 338 339 341 340 339 340 340 340 340 340 339 339 339 342 344 344 344 343 343 343 344 344 344 344 343 342 341 340 339 338 337 336 335 334 330 329 330 333 335 338 337 335 334 333 333 333 334 332 333 332
336 334 334 332 333 337 342 347 347 347 347 347 346 346 346 346 347 347 346 345 343 342 343 342 340 345 343 342 341 340 340 340 339 339 340 340 339 339 339 340 339 339 340 340 339 339 340 342 342 342 344 343 343 344 344 344 344 343 343 342 341 340 339 338 337 336 334 331 327 327 327 328 329 331 337 337 335 333 332 333 333 333 331 330 331
335 335 333 332 333 338 342 347 347 346 347 347 347 346 347 346 346 346 345 343 343 342 341 339 340 344 342 341 341 341 340 338 340 340 339 339 340 339 340 340 340 340 340 341 340 339 339 341 342 343 343 343 343 343 343 342 342 342 341 340 340 338 338 337 336 335 334 328 326 326 327 327 328 329 335 334 333 334 334 334 333 332 329 328 329
334 334 332 331 334 340 341 345 345 345 346 347 347 347 346 346 345 344 344 342 341 340 340 339 340 341 339 339 340 340 338 338 337 339 340 339 338 337 338 338 338 338 338 339 339 338 339 341 342 342 343 343 342 342 343 343 342 341 341 339 338 337 337 336 335 333 330 328 327 326 326 326 325 326 333 332 332 332 331 332 333 329 328 328 327
334 333 330 332 332 338 340 343 344 343 345 347 346 346 345 344 345 344 343 342 339 338 338 340 342 339 337 341 341 340 340 341 340 340 340 339 339 339 339 339 339 339 340 340 340 339 339 340 341 341 342 343 342 341 341 341 341 340 339 339 338 337 336 334 332 330 326 326 326 327 330 334 325 326 331 333 331 331 332 333 334 330 330 329 328
333 331 331 331 332 339 343 344 345 344 343 345 346 346 346 345 344 343 342 342 340 338 338 340 340 339 338 340 341 341 342 340 338 337 338 339 338 339 340 340 340 339 340 340 340 339 339 340 341 341 341 342 340 340 340 340 341 340 339 338 337 336 334 332 328 324 324 323 323 323 328 334 324 327 333 333 331 330 333 332 332 330 328 325 324
333 332 330 332 341 339 342 342 343 342 344 343 345 345 345 344 344 343 342 342 340 339 339 339 339 338 340 341 341 342 342 339 337 336 336 337 338 339 339 338 338 338 338 339 338 338 340 340 340 341 341 339 338 338 339 340 340 339 338 337 336 334 332 330 324 322 321 321 323 323 322 324 325 331 335 334 333 331 329 328 329 329 328 325 329
334 331 330 331 331 339 340 342 342 344 343 342 344 345 345 344 343 342 342 341 340 339 339 338 338 340 341 342 343 343 342 340 339 337 337 337 337 338 338 338 338 338 338 337 337 338 338 339 340 340 340 337 337 338 339 339 338 337 337 335 334 333 331 329 323 322 322 321 322 321 321 321 323 330 330 330 330 329 328 326 325 326 325 327 328
335 334 331 332 332 340 337 338 340 343 345 345 344 345 345 343 342 341 341 340 338 338 338 337 337 339 341 342 342 341 339 338 336 336 337 336 337 337 338 337 338 338 338 338 337 337 337 338 340 340 338 336 336 336 337 337 338 337 336 335 334 332 329 327 326 320 321 320 322 321 319 323 325 330 329 328 329 328 327 325 330 328 327 325 324
335 334 332 332 332 333 338 336 339 339 342 344 344 344 344 343 342 341 340 339 338 338 337 338 338 337 341 340 339 339 340 339 337 336 336 337 338 338 338 338 338 338 338 337 337 337 337 338 338 339 337 336 335 335 335 335 336 335 334 333 332 331 327 322 322 318 320 322 319 320 318 321 331 329 328 328 329 328 327 327 327 327 326 324 324
336 335 335 334 330 330 332 337 335 335 338 340 341 342 344 343 341 340 340 339 337 337 338 338 337 336 339 341 342 340 339 337 336 336 337 337 336 336 336 336 336 336 337 337 336 336 336 336 338 337 336 335 335 335 334 334 334 334 333 332 331 329 325 323 319 317 316 317 317 320 318 321 329 328 327 327 327 327 323 324 325 323 323 324 322
336 336 336 335 331 329 330 331 331 331 331 333 336 337 341 343 342 340 340 340 339 338 339 340 337 337 339 341 342 342 340 337 337 336 338 337 337 337 337 337 336 336 336 337 337 337 336 336 337 336 335 335 334 334 334 333 333 332 332 332 330 327 324 321 319 316 317 319 318 317 318 320 331 330 329 328 325 325 325 325 324 324 325 323 327
336 337 336 336 336 332 330 330 331 331 330 332 331 336 339 341 341 340 340 340 340 341 340 341 341 341 340 339 340 341 342 341 340 339 338 338 337 337 338 336 335 335 335 335 336 336 336 336 336 335 335 334 333 333 333 333 332 331 330 330 329 327 324 322 316 316 317 322 314 319 317 328 330 327 327 325 325 326 325 324 323 324 324 324 324
335 336 336 336 336 336 334 332 332 333 332 330 326 331 333 336 338 338 339 340 340 339 338 337 337 338 337 335 335 334 334 336 337 337 336 336 334 332 336 336 335 335 335 335 335 336 336 335 335 334 333 333 332 332 332 332 332 329 328 326 325 322 320 318 315 315 316 314 315 314 316 331 329 325 325 325 326 327 325 325 323 322 322 323 324
334 334 334 336 337 336 335 333 332 332 331 329 327 327 331 331 334 336 336 337 336 335 334 332 330 330 330 329 327 327 326 327 328 330 332 335 332 328 332 335 335 334 334 334 335 335 335 335 334 333 334 333 333 331 331 332 331 329 326 324 321 319 315 314 314 315 314 316 318 314 322 330 328 325 327 326 326 324 323 323 322 322 321 322 323
332 332 333 334 335 335 334 333 332 332 332 332 331 331 330 329 329 330 331 333 332 331 330 324 322 321 322 321 322 321 321 323 324 324 324 325 325 326 331 336 335 335 335 334 334 334 334 334 334 333 333 331 327 325 323 327 328 326 323 320 317 313 313 314 314 314 314 313 315 313 328 331 329 327 330 326 325 325 325 324 324 323 322 322 322
329 330 332 333 333 334 334 334 332 332 332 332 332 331 330 328 327 326 326 328 326 324 322 321 326 318 319 320 319 321 320 318 321 329 322 322 323 325 329 334 335 334 335 334 334 333 334 334 333 333 333 330 319 313 314 318 320 322 319 316 312 311 314 313 313 313 314 312 315 318 329 331 326 327 327 327 327 326 324 324 324 323 324 322 321
328 330 331 332 333 333 334 333 333 333 332 332 331 330 330 327 325 326 328 324 326 323 321 321 317 318 316 317 318 318 317 318 319 321 321 322 323 324 329 331 333 331 334 334 334 334 334 334 333 333 332 323 314 312 313 311 313 316 315 313 310 311 314 313 312 312 313 311 313 322 329 330 331 327 327 327 326 325 323 323 323 323 322 323 322
328 330 330 332 333 332 333 333 333 333 332 332 331 330 329 324 322 323 326 325 323 323 320 319 318 317 318 318 318 316 316 316 325 327 326 319 320 324 327 327 328 328 329 329 331 333 332 332 331 328 321 316 314 312 313 314 313 314 314 311 310 309 313 313 311 313 313 314 315 321 327 329 330 330 330 327 327 326 324 324 323 324 323 322 322
330 331 330 331 332 332 332 332 334 333 333 332 331 330 330 325 322 323 323 324 324 322 322 321 319 318 318 320 317 317 316 315 316 316 317 317 318 318 318 318 318 318 321 321 319 318 318 316 315 314 313 313 314 315 314 315 315 313 311 308 309 309 309 311 312 312 313 312 314 320 324 328 329 330 329 329 328 326 326 325 325 325 324 323 322
333 331 330 331 333 333 333 332 333 333 334 333 331 331 330 328 325 323 323 322 322 323 322 323 322 321 319 319 317 318 317 317 315 315 315 316 317 317 315 316 316 318 320 321 319 317 315 314 312 311 311 310 311 312 311 310 313 311 310 308 309 310 307 309 311 313 314 313 314 318 323 328 329 329 329 330 329 329 326 326 326 326 325 325 323
331 332 333 333 334 333 332 330 330 332 333 334 333 331 330 329 327 324 324 323 322 323 323 322 323 322 321 319 320 317 317 317 315 313 315 313 317 315 316 315 317 315 318 319 318 316 314 314 313 309 309 310 311 309 310 309 308 308 311 310 308 309 308 309 309 312 314 313 314 317 321 326 330 330 330 330 330 330 327 328 328 327 326 327 326
331 332 333 334 334 334 332 329 330 331 332 334 332 330 331 330 327 325 325 323 322 323 323 324 323 323 322 321 320 319 319 317 317 315 315 312 316 317 313 314 314 313 318 317 317 316 315 313 311 310 309 308 309 309 310 309 309 308 309 310 309 308 308 308 309 309 313 315 315 316 318 321 324 328 331 330 331 331 330 329 330 331 330 328 328
329 331 332 334 335 335 333 329 330 330 332 334 331 331 331 330 327 327 327 324 323 323 323 323 323 323 321 321 319 319 317 319 318 317 314 316 315 315 314 316 313 315 314 315 313 316 314 312 311 311 309 310 308 311 308 309 308 309 308 311 309 308 310 309 308 308 309 311 314 315 318 320 324 327 330 331 331 332 331 332 332 332 332 331 329
328 329 329 332 334 335 333 330 331 331 332 333 332 329 329 328 327 326 327 324 324 324 322 322 323 323 322 321 319 320 320 319 318 316 316 316 316 314 314 315 315 314 313 316 315 313 313 311 310 312 312 311 311 312 308 310 311 310 308 311 311 311 310 309 311 310 311 310 312 314 315 318 321 325 328 330 332 332 333 332 332 332 332 331 331
325 326 327 329 331 333 333 331 331 330 332 332 332 329 327 327 326 326 325 324 325 324 322 323 322 322 323 322 320 319 320 319 318 316 315 315 316 317 316 313 314 314 314 316 312 315 313 314 315 313 313 312 312 310 309 312 311 311 309 309 312 311 311 311 310 312 311 311 310 311 313 316 318 321 325 328 330 331 332 332 332 332 333 333 332
324 325 327 327 328 331 333 332 332 332 331 332 331 329 327 328 327 326 326 325 324 324 322 323 322 323 323 322 321 319 318 318 317 316 316 314 316 316 315 314 315 314 314 316 314 313 314 314 312 311 310 310 311 310 309 309 312 312 310 311 311 311 311 311 311 312 312 312 311 310 311 313 315 318 320 324 329 330 332 332 332 332 333 333 333
325 326 327 326 327 329 332 332 333 331 331 331 331 330 329 328 327 327 327 326 324 324 322 322 323 323 323 323 322 321 318 319 317 317 316 315 314 314 315 315 316 315 315 314 313 311 310 310 313 311 312 312 314 316 312 310 310 312 310 311 309 310 311 310 311 311 312 312 312 311 311 311 312 313 315 318 323 326 329 331 331 332 333 333 333
325 325 326 326 328 329 331 332 332 332 331 332 331 330 329 328 327 328 327 326 325 324 323 323 323 323 323 323 322 321 319 318 318 315 316 316 314 314 313 315 314 313 313 311 312 312 313 313 316 314 315 315 315 316 313 314 314 310 309 309 308 309 308 309 310 311 311 311 312 312 313 312 311 312 313 315 317 320 324 328 330 331 331 331 332
324 324 325 327 327 328 330 332 330 331 330 331 330 330 329 329 327 327 327 326 326 325 325 324 323 323 323 323 323 322 320 320 318 317 315 316 315 314 312 315 313 312 312 313 316 315 316 317 317 315 315 314 314 314 313 313 313 313 312 311 311 310 308 310 310 310 311 312 312 312 312 313 314 313 313 313 311 313 318 323 327 330 331 331 331
324 324 325 326 326 327 328 330 329 330 330 331 330 330 329 329 328 325 327 326 326 325 325 324 324 322 323 323 322 322 321 320 319 320 321 319 318 317 317 316 316 318 318 318 317 318 317 317 316 316 315 316 314 314 313 313 312 310 310 309 310 309 309 309 310 311 313 313 312 312 312 312 312 313 312 314 314 312 314 317 321 324 326 329 330
324 324 324 324 325 326 327 329 329 329 330 330 330 329 328 328 328 327 327 326 326 325 325 324 323 323 322 323 322 322 322 322 322 323 324 322 321 321 321 321 321 321 320 319 317 318 317 316 316 315 314 316 314 313 313 312 310 309 308 308 309 309 309 309 310 311 312 311 311 311 311 311 311 310 312 313 313 313 312 314 317 318 318 322 326
323 323 324 325 325 326 326 328 329 329 330 330 329 329 328 328 327 328 326 326 326 326 325 324 324 323 323 322 322 324 325 326 326 325 326 325 325 324 324 322 321 321 320 319 318 318 317 316 314 312 314 314 314 314 312 311 306 308 309 309 310 308 309 309 309 307 308 309 310 310 311 310 311 311 311 311 311 312 311 312 314 314 313 315 321
324 323 324 324 325 325 325 325 327 328 329 329 328 328 327 327 327 327 326 326 326 326 326 325 324 324 323 324 325 327 327 328 327 326 326 323 322 321 323 324 322 319 319 319 319 318 317 316 315 317 315 315 313 312 311 310 311 311 311 312 310 309 309 308 308 307 308 308 309 309 308 309 309 309 309 309 309 309 309 310 310 311 312 313 317
323 323 322 324 324 324 325 325 326 328 328 328 327 327 326 325 325 324 326 326 327 326 327 328 327 326 324 324 325 327 327 327 328 328 327 325 324 324 324 321 320 319 320 320 318 315 315 314 313 313 313 310 308 310 311 312 311 311 310 310 308 308 308 309 308 308 308 307 307 306 307 308 306 307 307 308 308 307 307 308 308 309 310 311 313
322 322 322 323 324 325 324 324 325 326 327 326 326 327 326 326 326 326 327 327 327 328 329 330 330 329 328 327 326 326 325 324 322 323 326 324 325 324 323 321 320 317 317 319 319 316 316 317 312 310 312 308 309 310 311 311 310 311 309 307 309 309 309 308 309 308 307 307 307 307 307 306 306 306 307 307 307 307 306 306 307 307 308 308 309
320 321 322 323 324 324 324 325 324 325 327 328 327 326 328 329 328 328 326 326 326 326 329 330 330 330 329 328 328 327 326 325 324 323 323 324 324 323 323 323 321 319 318 318 314 313 315 311 313 313 310 311 308 309 312 312 308 308 310 311 311 310 310 308 307 307 306 307 307 306 306 305 306 306 306 306 306 306 306 306 305 305 305 306 306
321 321 323 323 323 324 325 325 325 325 326 327 327 327 327 327 328 325 327 322 320 325 325 325 328 329 329 330 329 328 326 325 324 323 325 325 325 324 323 322 321 319 320 319 316 315 314 314 314 316 315 308 311 311 311 313 312 308 309 307 306 307 307 302 297 301 304 305 305 304 305 304 305 305 305 304 304 304 304 303 303 303 304 304 304
320 320 321 322 323 323 324 325 325 325 326 326 325 327 326 326 324 321 323 325 320 316 322 322 325 326 327 328 329 328 327 325 325 325 325 326 325 324 324 323 323 320 321 320 319 318 317 316 314 312 311 313 308 310 312 311 312 311 307 305 305 303 303 303 298 304 301 305 303 304 303 304 305 305 303 303 304 303 303 303 303 303 303 303 303
319 320 321 322 324 323 324 325 325 324 325 325 324 324 321 319 318 317 317 319 316 317 318 322 324 323 324 324 326 325 325 325 325 326 324 326 326 325 321 321 321 319 320 322 320 320 320 320 315 312 314 316 315 312 310 310 311 312 312 307 305 301 302 306 307 310 307 304 302 301 302 302 303 304 302 304 304 304 304 304 304 303 303 303 303
318 320 322 323 323 324 323 323 324 324 325 324 324 323 323 324 321 323 322 322 323 321 321 323 321 322 324 321 321 321 323 324 325 324 324 323 325 324 322 321 321 322 322 322 321 320 319 318 317 317 316 315 315 313 311 309 309 309 310 313 311 308 307 307 306 303 307 307 311 307 304 305 303 302 302 303 304 305 304 304 304 304 304 304 304
317 319 319 320 322 323 322 322 323 323 323 323 323 321 323 324 324 325 325 323 322 321 316 315 319 317 317 319 320 316 320 324 324 324 324 324 324 322 323 323 321 320 317 320 319 318 317 317 316 316 316 314 313 312 312 310 308 308 308 309 309 308 307 304 302 303 301 305 306 303 306 306 306 305 304 304 305 304 304 303 303 303 303 304 304
316 314 316 318 319 320 321 321 322 320 322 322 322 323 324 323 322 322 321 322 321 317 311 312 310 310 315 314 314 315 317 320 323 322 323 323 322 320 321 321 320 320 316 315 317 317 316 315 314 315 314 313 312 312 311 311 310 309 306 307 306 306 306 305 306 303 300 297 302 305 307 307 307 308 306 306 306 305 304 304 304 304 303 303 303
310 313 315 317 318 319 318 319 320 320 320 320 321 322 323 323 323 322 319 315 314 312 308 305 310 308 312 308 312 312 315 316 318 319 319 319 317 320 321 320 318 318 316 317 317 317 316 315 313 312 314 314 313 312 311 311 310 309 308 305 303 303 304 304 303 302 300 299 301 303 304 306 306 306 305 303 305 306 305 305 304 303 304 303 303
307 307 307 307 311 314 315 316 319 319 319 319 320 321 321 320 321 320 320 314 310 305 308 309 307 308 311 309 311 313 314 315 315 316 318 318 319 319 319 318 318 317 315 317 315 314 314 312 313 313 313 312 312 311 310 310 309 309 308 307 305 303 302 301 300 303 302 302 299 300 302 301 299 301 305 305 303 302 304 305 306 305 303 303 303
298 300 303 306 309 312 314 316 318 318 317 318 318 319 320 319 321 319 318 314 311 311 309 305 307 308 311 309 312 311 311 311 310 309 310 313 314 314 316 315 316 312 313 313 312 311 310 312 312 311 310 310 310 310 309 309 309 308 308 308 307 306 304 302 303 303 302 298 299 299 300 301 300 299 301 301 302 303 304 304 304 305 305 304 303
Wind_Speed
4 3 2 5 6 9 9 8 9 9 9 8 8 9 9 10 11 12 12 12 14 14 14 15 15 15 15 15 16 16 16 17 17 16 16 15 14 13 13 15 17 18 18 18 17 19 20 19 20 19 19 18 18 18 18 18 18 18 18 19 19 19 18 18 18 19 18 18 18 17 17 16 17 17 17 17 16 15 12 14 11 7 7 11 16
7 3 2 3 5 8 8 8 9 9 9 8 8 9 10 11 12 12 11 12 13 14 15 15 15 15 15 15 15 15 16 16 16 16 16 16 15 14 13 13 15 17 17 18 18 19 19 19 18 18 17 16 16 16 17 18 17 18 18 18 18 18 18 18 18 18 18 17 18 17 18 17 17 17 17 16 16 15 12 14 14 7 5 13 15
5 3 2 3 6 7 7 8 10 10 9 9 9 10 11 12 12 11 11 12 12 14 16 16 15 16 15 15 15 15 16 16 17 16 16 15 14 15 14 13 13 14 16 17 18 18 18 18 18 16 16 16 16 17 17 17 16 17 17 18 18 18 18 18 17 16 16 15 15 15 16 18 16 16 15 16 16 16 13 15 14 11 8 14 13
6 3 2 4 5 5 7 8 10 9 9 9 10 11 12 11 12 12 12 12 12 13 14 14 15 15 14 13 16 17 17 16 15 16 17 17 16 15 14 14 14 13 14 15 16 17 18 17 17 16 16 15 16 16 17 16 16 16 17 17 17 18 18 17 16 15 15 14 13 10 5 5 8 15 15 15 15 16 13 15 15 15 14 13 14
6 3 3 3 3 5 6 7 9 9 10 10 11 12 13 13 12 13 12 12 12 12 14 14 14 14 14 14 15 15 15 15 16 16 15 16 15 15 15 15 15 15 15 14 14 15 16 16 17 17 16 16 16 15 16 16 16 17 16 17 17 17 17 16 16 15 14 13 12 8 6 5 4 13 14 15 14 13 12 13 14 14 14 15 14
5 4 3 3 3 3 4 7 9 11 11 12 12 12 12 13 12 13 13 12 11 11 14 13 13 13 14 14 13 13 12 14 15 15 14 14 15 15 15 15 15 16 15 15 15 15 16 16 16 17 16 15 14 15 15 16 16 17 16 16 16 16 15 15 14 14 12 12 10 6 6 6 5 5 15 14 13 11 12 13 14 13 13 13 13
6 4 4 3 3 3 3 9 11 12 12 12 12 13 13 12 12 12 13 12 11 11 12 13 12 15 13 14 14 14 13 14 14 15 15 14 14 14 14 15 15 15 15 15 15 14 16 16 16 16 16 16 16 16 16 16 16 16 16 15 16 15 14 14 13 12 11 7 5 5 6 6 5 4 14 13 12 11 10 12 13 13 12 11 12
5 4 3 3 2 3 4 9 10 12 13 12 11 11 12 13 12 12 12 11 11 11 12 11 12 14 13 13 14 14 15 13 14 14 14 13 14 14 15 15 15 15 15 16 15 14 15 15 16 16 16 15 15 16 16 16 16 15 15 15 14 14 14 13 12 11 10 6 5 5 6 5 5 4 11 11 11 11 12 13 12 12 11 11 10
5 3 3 2 2 3 4 9 11 11 13 12 12 12 12 13 11 11 11 11 11 11 11 11 13 13 13 12 13 14 13 13 13 14 14 14 13 13 14 13 13 15 15 14 14 14 14 15 15 16 16 16 16 15 15 15 15 14 14 14 14 14 13 12 11 9 6 5 5 5 5 4 4 3 9 11 11 11 12 10 10 10 10 8 10
4 3 2 2 2 4 3 7 10 10 11 12 11 11 12 12 11 11 11 11 11 10 8 12 14 12 11 12 12 13 13 13 13 12 12 13 13 13 14 14 14 14 14 14 14 13 14 15 15 15 16 17 16 15 15 15 15 14 14 14 14 13 12 10 9 6 5 4 5 4 4 5 3 3 8 11 11 11 9 7 5 2 1 10 11
4 3 2 3 3 4 5 8 8 8 10 11 11 11 11 12 10 11 11 11 10 9 7 11 11 11 11 12 13 13 13 13 11 12 13 13 13 13 13 13 13 13 13 13 13 12 13 15 14 15 16 17 16 14 14 14 14 13 13 13 12 12 11 10 7 5 5 5 5 4 5 7 3 3 8 11 10 10 8 4 6 12 13 11 7
5 3 3 2 4 7 7 8 8 8 7 9 11 11 10 11 10 11 11 11 10 8 8 10 10 11 12 12 11 12 12 12 11 10 11 12 12 12 12 12 12 12 12 12 12 12 13 13 14 14 15 16 15 14 14 13 13 13 13 12 12 11 10 9 5 5 4 5 4 4 5 5 4 5 10 11 10 10 8 7 11 9 10 7 11
6 4 3 3 3 6 7 7 5 4 7 9 10 12 10 11 11 10 10 11 10 9 9 9 10 11 12 11 11 12 12 12 11 11 11 11 11 11 11 11 11 12 12 12 11 11 12 13 13 14 14 15 15 14 14 13 13 12 12 11 11 10 8 7 4 5 4 4 4 4 4 4 4 8 8 8 8 8 9 8 6 7 6 10 10
8 5 3 3 3 5 7 6 5 6 7 7 8 10 11 10 10 10 10 10 10 9 9 9 8 11 11 11 11 12 12 12 11 11 11 11 11 10 11 11 11 11 11 11 11 11 10 11 12 12 13 14 14 15 14 13 12 11 10 10 9 8 7 5 5 4 4 4 3 4 3 3 2 9 8 9 8 9 8 6 12 10 9 10 7
10 6 4 3 3 4 6 6 6 6 6 7 8 10 10 12 12 11 11 10 10 9 9 10 9 9 10 10 10 11 11 12 11 10 11 10 10 11 11 11 11 11 11 11 10 10 10 11 11 11 12 13 13 14 14 13 12 10 9 8 7 6 6 4 3 3 4 3 3 4 3 3 7 7 7 8 9 9 8 6 8 8 7 6 5
8 7 5 4 3 3 3 5 6 7 6 6 6 8 10 10 11 11 10 10 10 8 9 9 10 8 10 11 12 12 11 12 11 10 9 10 10 10 10 9 10 10 10 10 10 10 9 9 10 10 11 11 12 12 13 13 12 10 8 7 6 5 5 4 3 3 3 3 2 2 3 2 6 8 7 7 9 8 5 6 7 5 5 8 4
7 6 7 5 3 3 3 3 4 7 7 8 8 8 8 8 10 10 8 8 7 7 10 9 9 8 9 9 11 11 10 11 10 9 7 9 10 8 8 9 9 10 10 10 9 10 9 9 9 9 9 10 10 11 11 12 11 9 7 5 5 5 4 4 3 2 2 2 1 3 4 3 4 10 9 10 6 6 5 7 6 7 9 4 11
7 7 8 6 5 3 3 3 4 4 4 5 7 7 8 8 8 8 8 7 6 7 10 9 9 9 9 8 9 9 10 10 9 8 9 9 8 7 7 8 8 9 9 9 9 9 8 7 7 7 8 8 9 9 9 10 10 9 6 4 5 4 4 4 3 1 1 1 3 2 3 5 6 6 6 5 5 6 6 6 5 5 5 6 3
8 7 7 7 6 4 4 4 5 5 5 3 3 5 8 8 7 7 7 7 7 8 8 8 8 8 8 8 9 9 9 9 9 10 9 8 7 6 5 5 8 8 8 8 8 8 7 6 6 6 7 7 7 8 8 8 9 9 7 4 4 5 4 3 1 1 1 1 2 2 3 7 3 5 4 5 7 10 5 6 4 3 3 5 4
7 7 7 6 6 6 5 4 4 5 3 3 4 4 6 8 7 7 7 8 8 8 8 8 8 9 9 9 9 7 7 6 9 7 8 7 6 5 5 4 7 8 8 7 7 6 5 5 4 5 5 6 7 7 7 8 8 8 7 5 4 4 2 1 1 0 0 0 1 2 4 6 7 2 3 3 6 3 3 2 4 4 4 4 8
6 6 6 7 7 7 7 4 4 5 5 4 4 3 4 7 6 7 8 8 8 8 8 8 8 8 8 8 7 5 4 4 5 4 6 4 5 5 4 3 5 6 6 6 5 5 5 4 3 3 4 6 6 6 7 7 7 8 6 5 4 1 0 0 0 0 0 1 2 3 5 5 6 7 9 5 3 4 6 7 5 6 4 6 7
7 7 7 7 7 7 8 6 4 5 5 4 3 3 3 3 4 3 4 5 6 6 6 4 5 4 6 5 4 4 4 3 4 5 4 3 4 5 5 5 5 4 5 5 5 4 3 2 1 2 3 5 5 4 4 5 6 7 6 5 3 1 0 0 1 0 1 2 2 3 6 6 5 4 3 6 7 6 6 6 6 5 8 6 5
7 6 7 8 6 5 7 8 6 5 6 4 4 3 4 2 3 4 4 4 4 4 4 4 4 4 3 3 4 3 3 3 3 3 3 5 4 6 5 5 5 4 4 5 4 3 2 1 1 3 4 5 3 3 3 3 4 6 4 4 2 1 0 1 2 1 2 2 2 4 5 7 7 3 5 7 3 2 2 3 5 7 7 6 6
9 8 7 6 7 7 8 7 8 7 5 4 3 3 3 2 2 3 3 3 3 3 3 3 3 3 3 3 3 3 3 2 3 4 4 3 3 4 4 5 4 3 4 3 3 2 3 4 5 5 4 3 3 3 4 4 4 4 3 3 2 1 0 1 2 3 4 3 3 5 5 6 7 8 9 4 6 6 2 4 3 6 7 7 7
8 6 5 8 9 8 7 8 8 7 6 5 4 4 4 2 2 2 3 3 3 3 3 3 3 3 3 3 3 3 2 2 2 2 3 3 2 2 2 2 2 2 3 2 0 1 2 1 2 2 2 3 4 5 5 5 4 5 4 2 2 1 2 2 2 3 4 3 4 6 7 6 7 9 9 10 9 3 4 5 6 6 7 7 7
5 7 8 7 8 8 8 7 8 8 7 6 6 5 5 4 4 4 3 3 3 4 3 4 3 3 3 3 2 3 3 3 2 2 2 3 3 3 2 2 1 2 1 1 0 1 1 1 1 1 2 2 3 3 3 3 4 5 3 3 2 2 2 2 2 3 4 4 4 8 8 8 9 9 10 11 10 11 4 5 8 8 7 9 8
7 8 7 7 7 8 7 6 7 7 8 6 6 6 5 5 5 5 5 5 3 4 5 4 4 3 3 3 4 2 3 3 3 2 3 2 3 3 3 2 2 2 1 1 1 1 1 1 1 2 2 2 3 3 4 3 2 3 4 4 2 1 2 3 3 4 4 4 5 8 8 10 10 11 11 11 11 12 5 9 10 10 9 11 10
7 8 7 7 8 9 8 6 7 8 7 8 8 7 6 6 6 5 5 5 5 5 5 5 4 4 4 4 4 4 5 4 4 4 4 2 4 3 2 2 2 2 2 1 2 1 1 1 1 3 2 2 3 3 4 3 3 1 3 4 4 3 2 3 3 3 4 4 4 7 9 9 9 11 13 13 13 13 13 11 13 14 13 11 12
9 8 8 8 8 8 8 8 7 8 7 7 7 6 6 5 5 5 6 5 5 6 5 4 5 4 4 4 4 4 4 5 5 5 3 4 3 3 3 4 3 3 2 2 2 3 3 2 2 3 3 3 3 4 3 3 3 3 3 5 4 4 4 3 4 4 4 4 5 6 9 9 9 11 13 15 15 15 15 15 15 15 16 15 15
10 9 8 9 8 8 9 10 9 8 8 7 6 6 6 6 6 6 6 5 6 6 4 5 5 5 5 4 5 5 6 6 5 4 5 5 4 3 3 3 4 2 2 3 3 2 3 3 3 4 3 4 4 5 3 4 4 4 3 5 5 5 4 5 5 4 5 4 5 5 8 10 9 11 13 14 16 16 17 17 17 17 18 17 17
8 9 9 8 8 9 9 9 8 7 6 8 7 7 6 7 6 6 5 6 6 5 5 5 5 5 5 5 5 5 5 5 5 5 5 4 4 4 4 3 3 3 3 5 2 4 3 4 5 5 4 4 6 3 2 5 5 5 4 4 5 5 6 5 5 5 4 6 5 5 6 9 10 10 12 14 15 17 18 18 19 19 19 20 18
10 10 8 7 8 10 9 9 9 8 8 8 7 7 7 7 6 6 6 6 5 5 5 5 5 5 4 5 5 5 4 5 4 4 5 4 4 5 4 3 5 4 4 5 4 4 4 4 3 3 3 2 4 3 1 2 6 6 4 5 5 5 6 5 6 6 5 5 6 5 5 6 9 11 11 13 15 16 17 19 20 21 21 21 21
8 10 10 8 10 10 10 10 9 8 10 10 8 8 7 7 6 7 6 6 5 5 5 6 6 5 5 5 5 5 5 5 5 5 5 5 4 4 4 4 5 4 4 4 3 2 2 3 4 2 2 2 3 5 2 2 4 6 5 6 4 6 5 5 6 6 6 6 6 6 6 6 6 8 11 11 12 15 16 18 19 21 22 23 23
9 7 8 11 8 7 8 8 9 10 11 9 8 7 7 7 6 6 6 6 6 6 6 5 6 5 5 5 5 5 5 5 4 4 4 4 4 4 4 4 5 3 3 2 3 4 4 2 5 2 4 3 4 5 4 5 5 5 5 5 4 6 5 5 6 6 6 6 6 6 7 6 6 6 6 10 12 12 14 16 17 19 21 22 24
7 8 12 11 9 9 8 7 9 10 10 10 9 8 7 7 7 6 6 6 6 6 6 5 5 6 5 5 5 5 5 5 4 5 4 4 4 4 3 5 3 2 2 3 3 2 3 4 1 2 3 4 4 4 4 5 6 7 7 5 6 6 4 6 6 6 6 7 6 6 7 6 6 6 6 6 8 12 13 15 16 17 19 21 22
11 11 10 8 10 9 9 9 9 11 11 11 9 8 7 7 7 6 6 6 6 6 6 6 6 5 5 5 5 5 5 4 4 3 4 3 4 4 5 3 3 3 3 2 2 4 4 4 3 2 4 6 5 5 4 6 6 6 6 6 6 6 6 6 6 6 7 5 6 7 7 7 6 7 7 7 7 8 12 12 14 15 16 19 21
10 9 10 9 10 10 11 12 12 12 11 10 9 8 7 7 7 7 7 7 7 7 6 6 5 5 5 5 5 5 4 4 4 3 4 3 3 3 3 3 2 3 3 3 4 4 3 3 4 4 3 5 3 4 6 6 5 5 5 6 7 6 6 6 7 7 6 6 7 7 7 7 7 7 7 7 7 7 9 12 12 14 15 16 19
9 9 9 11 11 10 10 11 10 11 11 11 10 9 8 7 7 7 6 7 7 7 6 5 6 5 5 5 4 5 5 5 5 4 4 4 4 4 3 2 2 2 2 2 4 1 2 3 4 3 4 3 5 6 8 6 3 4 5 7 7 6 7 7 7 6 6 7 7 7 7 6 7 7 7 7 7 7 6 9 12 14 14 14 17
8 9 8 9 7 8 8 9 10 10 10 9 8 7 6 6 6 6 6 7 6 6 6 6 6 4 5 5 5 5 5 5 6 5 4 4 3 3 4 4 3 2 2 2 3 2 3 3 5 5 3 5 6 6 5 4 5 5 6 8 6 7 7 7 7 7 7 7 7 7 5 7 6 6 6 6 6 6 7 7 7 7 9 13 15
8 8 9 8 9 8 7 8 9 9 7 7 7 6 5 7 7 4 6 6 6 6 6 6 6 6 5 5 5 5 5 5 6 6 7 6 6 6 6 5 3 3 4 3 4 4 5 4 5 5 6 4 4 5 4 5 4 5 8 8 6 7 8 8 7 7 7 6 6 6 7 6 6 7 6 6 6 6 6 7 7 8 8 11 14
8 8 9 10 11 11 9 12 9 8 8 8 7 8 8 6 6 9 10 6 7 6 6 6 6 5 5 5 5 6 5 4 4 4 6 6 6 5 5 3 3 4 4 6 5 4 4 4 3 2 4 3 3 3 3 2 2 6 5 6 6 6 8 8 8 7 6 6 6 6 6 6 6 6 6 5 6 6 6 7 7 7 8 7 8
10 9 12 12 11 10 11 11 8 9 10 10 10 9 9 10 8 8 6 6 5 7 7 6 6 5 5 5 6 5 5 5 5 4 4 3 4 4 3 6 3 5 4 3 4 4 4 4 2 3 3 4 3 1 2 2 2 3 5 7 6 5 7 5 6 5 5 6 6 5 6 5 7 6 5 5 6 6 7 7 6 7 7 7 7
11 12 12 11 11 11 11 10 9 10 10 10 9 10 8 7 8 5 8 4 4 5 5 4 4 5 5 5 5 5 5 4 5 5 5 5 5 4 5 4 5 3 3 4 5 4 3 4 4 5 4 1 4 3 3 5 4 0 1 3 5 9 3 3 2 4 4 6 5 5 5 5 7 6 5 6 6 6 5 6 7 7 7 7 7
10 10 10 12 11 11 11 11 10 10 10 10 11 9 8 7 6 5 5 6 5 4 4 3 4 4 5 5 6 6 5 5 5 5 5 5 5 5 6 6 4 3 4 4 4 5 4 4 5 4 2 4 2 4 2 3 3 1 4 1 4 1 7 2 3 5 4 5 4 6 4 6 6 7 6 6 7 6 7 6 7 7 7 7 7
12 12 12 12 10 13 12 12 11 11 10 10 10 7 5 4 3 2 2 1 1 2 3 5 5 4 4 5 6 4 4 6 6 6 5 6 6 6 4 4 4 4 3 6 6 5 5 5 4 3 6 6 5 1 1 2 3 2 2 3 4 0 4 5 7 8 3 3 3 3 5 4 6 6 5 7 6 7 7 8 8 7 8 8 7
12 12 11 12 11 11 11 10 9 9 10 10 10 8 8 9 7 7 7 7 8 6 9 7 4 4 5 2 3 4 4 5 5 5 5 5 5 5 3 4 6 6 6 4 3 3 3 3 2 3 4 4 4 3 2 0 2 2 3 5 2 5 7 4 6 5 2 4 7 5 6 6 6 6 5 6 8 8 7 8 7 8 8 7 7
13 9 9 10 11 10 9 10 10 9 8 8 9 8 8 8 11 12 10 9 9 6 1 2 3 4 3 4 4 4 4 5 5 5 5 5 4 4 5 4 2 0 1 0 0 1 2 2 2 2 2 1 1 1 3 2 2 1 1 3 5 3 2 3 4 5 9 1 1 5 6 6 7 6 7 8 8 7 7 7 8 8 8 7 8
11 8 9 8 10 11 10 11 9 9 8 7 9 10 11 9 9 9 8 9 9 7 4 4 3 3 4 4 3 3 3 4 4 4 4 4 4 3 2 2 3 3 3 3 2 2 1 2 2 1 1 1 1 1 2 2 2 2 1 1 1 2 2 2 4 4 6 11 8 3 4 5 6 8 8 10 10 8 8 7 7 8 7 7 7
7 8 10 10 9 9 9 7 9 8 7 9 10 10 10 10 10 8 7 5 4 4 3 2 4 3 3 2 3 3 2 2 2 3 3 3 2 3 3 5 4 2 5 6 4 3 3 4 4 3 5 5 4 2 2 2 2 2 3 2 3 2 3 3 2 0 3 7 10 6 10 5 5 7 7 5 8 9 9 9 8 8 8 8 8
6 5 5 5 5 6 7 8 9 8 8 9 10 10 10 8 9 8 10 6 4 3 4 4 3 4 4 4 3 4 3 4 3 3 4 4 5 5 4 5 5 4 2 5 5 3 3 3 3 6 4 5 3 5 3 1 1 3 3 2 2 2 2 2 2 4 2 5 8 12 10 13 14 8 8 8 5 6 8 10 12 9 7 7 7
4 5 5 5 6 7 7 9 9 8 8 9 10 11 9 9 9 9 9 8 7 7 5 3 4 4 5 4 4 4 3 4 4 4 4 4 5 4 4 5 5 4 4 4 4 4 3 4 6 5 5 6 4 4 4 4 3 4 4 4 4 3 3 2 4 4 3 4 8 9 11 10 11 16 5 3 8 9 9 8 9 10 8 8 8
Wind_Direction
175 182 204 154 138 131 130 131 135 122 111 114 113 107 103 100 102 103 101 103 96 98 98 89 84 83 83 82 82 83 82 83 81 80 80 80 82 83 86 81 78 77 76 77 76 78 77 75 74 73 71 70 70 70 69 69 69 70 71 70 68 66 64 62 63 63 64 67 68 68 70 72 76 75 72 70 68 65 61 58 49 41 39 50 57
165 185 177 139 142 134 126 128 124 114 115 117 116 111 113 111 111 109 108 102 102 99 93 89 87 88 87 86 85 84 83 82 80 80 78 78 78 81 82 77 78 77 74 73 73 74 75 75 76 75 72 71 72 74 75 74 73 73 73 74 73 70 66 66 64 64 65 65 66 66 70 68 69 70 70 69 68 66 63 62 59 52 49 55 54
134 128 157 135 130 138 132 130 124 120 123 125 122 117 118 116 112 109 108 104 102 99 94 93 93 90 87 88 90 88 86 83 82 82 84 82 82 81 83 85 81 82 79 78 76 78 78 78 78 76 72 73 77 79 81 79 75 75 76 74 73 70 68 66 64 63 61 59 58 56 54 64 66 68 70 69 66 63 59 61 60 56 55 58 58
119 116 109 114 121 130 137 126 98 111 112 116 119 119 119 120 116 113 111 108 103 98 95 92 90 89 88 90 85 84 84 85 89 86 81 81 79 80 82 84 84 86 82 83 81 80 80 81 82 78 74 79 85 85 84 83 80 78 77 76 74 72 69 68 65 61 59 57 50 41 31 31 60 69 69 68 66 64 60 60 58 58 59 58 57
106 111 102 88 91 117 130 113 108 105 120 121 122 122 124 121 118 117 115 105 103 101 100 98 95 95 94 89 85 87 86 91 86 81 84 84 86 87 85 83 81 83 86 87 89 86 90 90 83 77 72 78 85 87 87 86 84 81 78 77 76 75 74 72 69 62 58 50 43 44 31 29 37 71 69 68 65 65 70 70 65 60 57 57 60
112 107 96 93 97 113 138 119 110 116 122 123 121 120 122 120 120 119 112 107 105 104 104 99 100 101 96 93 87 89 92 88 88 84 86 91 89 85 86 85 85 87 89 89 91 97 97 93 86 79 77 80 85 87 88 87 86 85 81 80 80 79 76 72 69 66 56 43 39 37 31 29 30 37 63 68 70 64 67 66 63 61 57 59 61
113 111 109 106 121 145 135 125 118 120 120 119 118 118 122 124 119 115 111 107 102 97 97 104 105 96 94 94 94 96 91 85 89 92 90 88 89 91 92 93 92 88 86 88 92 94 93 88 83 81 79 83 89 89 87 86 86 85 82 81 81 80 77 73 69 64 56 50 43 36 37 35 29 17 58 59 67 68 66 68 68 57 49 42 26
104 111 117 125 138 157 142 125 118 120 117 118 117 117 121 118 117 112 106 104 101 98 101 103 107 109 104 102 104 98 94 94 98 97 96 96 97 92 87 85 86 88 92 97 97 94 93 88 83 78 78 82 86 87 86 87 88 88 86 83 80 77 74 71 65 61 57 52 46 42 41 36 34 34 63 60 58 56 54 65 63 53 46 42 22
111 111 107 114 128 128 109 121 120 117 113 114 121 124 123 117 109 106 106 102 99 100 109 115 102 96 97 101 93 92 96 98 92 92 91 86 85 93 93 92 92 91 90 90 93 99 95 87 83 78 77 79 83 86 88 88 88 88 85 85 83 80 75 65 57 51 48 49 45 48 44 33 26 33 66 64 64 65 57 51 52 56 63 66 53
110 96 87 93 103 99 116 129 122 116 117 114 117 120 113 110 106 107 106 102 100 103 115 108 105 103 107 102 100 99 98 92 90 90 93 93 93 88 91 90 86 87 89 88 91 101 99 90 85 80 77 76 79 82 86 88 87 87 88 88 86 81 73 63 55 45 47 39 32 24 35 46 20 27 71 72 69 58 35 60 85 123 83 56 55
108 98 94 92 97 87 74 78 90 107 118 120 118 120 111 110 109 109 107 103 101 103 108 110 109 114 112 100 101 104 99 96 95 98 96 94 93 93 92 92 91 90 88 91 97 103 105 92 85 80 77 73 76 80 81 83 84 85 86 86 83 77 69 61 52 51 43 40 38 22 12 24 17 36 69 74 68 66 52 34 60 64 56 52 46
108 94 102 114 92 72 79 84 86 101 116 127 122 121 118 113 111 111 109 106 105 113 111 100 107 112 108 107 106 106 102 98 96 90 92 94 96 95 98 98 97 95 95 95 97 106 108 95 84 80 74 74 77 80 82 81 84 86 86 85 80 75 67 59 56 50 44 38 36 30 28 21 14 48 60 69 65 65 68 48 50 55 57 52 59
112 111 102 83 81 87 83 85 78 84 118 129 130 129 129 121 119 112 109 108 110 113 111 112 113 109 104 105 105 105 104 104 106 110 104 99 97 93 91 91 91 89 90 90 97 106 109 100 86 76 73 74 75 78 82 82 84 86 88 88 85 80 69 57 58 54 45 40 38 32 35 30 18 54 58 61 58 52 46 42 44 66 83 56 44
128 123 116 111 112 100 97 94 81 81 111 118 125 125 125 119 116 110 113 111 114 119 121 122 115 112 112 113 114 115 110 105 103 103 103 103 100 97 95 95 91 91 89 90 97 104 104 100 89 76 73 73 75 76 76 79 81 83 88 89 86 82 74 64 61 61 52 37 28 26 15 355 39 50 45 56 66 68 68 54 59 48 38 29 25
140 133 131 122 117 122 120 105 95 88 99 124 128 128 123 117 111 109 113 117 123 131 133 122 119 118 119 121 119 115 110 109 107 105 104 101 100 99 98 97 95 94 94 94 94 99 104 99 86 74 72 70 71 74 74 74 75 79 84 83 82 71 80 76 62 57 50 37 9 19 356 340 46 56 57 55 55 45 39 30 45 48 41 28 21
137 135 127 121 126 130 120 117 105 89 88 86 100 113 121 114 113 115 118 121 128 135 110 108 124 126 101 93 96 108 118 109 105 103 101 104 105 101 99 97 97 96 97 96 96 98 102 99 79 68 68 69 68 70 72 71 69 73 82 85 71 78 87 90 74 55 55 42 21 20 15 356 48 67 66 60 53 49 59 31 33 24 36 47 330
139 136 131 130 133 133 130 117 111 96 87 88 85 88 111 121 119 121 118 120 127 133 116 111 115 115 98 93 90 88 95 105 107 103 93 95 94 91 102 110 108 106 103 104 103 96 93 84 67 65 65 66 66 65 66 67 64 65 76 77 84 85 82 89 79 59 51 36 13 4 357 342 312 54 60 49 60 94 35 27 35 23 40 28 63
145 141 142 138 139 141 123 115 106 91 89 86 88 95 99 103 108 113 119 125 128 102 103 108 105 96 94 86 88 92 95 98 98 98 97 88 75 71 81 99 108 108 109 107 102 99 93 84 73 66 64 62 62 60 56 59 61 58 61 71 100 101 95 93 99 58 37 17 4 345 353 342 22 40 36 54 68 27 45 64 28 24 18 4 49
152 149 150 151 153 145 132 127 119 126 126 112 101 105 112 112 110 109 115 117 104 107 105 105 105 90 94 91 85 85 88 95 101 101 97 90 79 66 66 90 108 105 107 108 109 100 91 79 76 68 62 59 56 54 47 45 55 55 52 59 104 102 89 81 86 53 23 14 348 352 328 323 323 58 46 30 9 44 17 43 5 60 10 330 61
156 156 163 165 158 159 154 152 144 144 143 136 124 125 127 125 119 115 117 121 121 119 119 112 107 108 108 103 97 90 86 89 98 104 106 98 93 87 78 90 116 118 115 116 112 103 97 88 78 70 54 44 39 30 22 26 41 52 48 60 78 96 85 64 78 49 356 332 348 333 309 327 337 97 126 1 41 58 40 51 23 3 358 349 327
165 169 174 173 170 173 173 157 162 156 143 138 127 125 137 130 123 123 127 130 131 129 121 115 112 113 112 109 102 101 102 103 98 105 104 110 114 105 100 99 114 115 118 118 114 107 105 91 72 61 47 41 27 25 18 22 26 38 41 50 58 48 48 81 17 349 338 315 331 310 314 330 346 305 59 38 21 357 337 14 22 353 4 341 317
176 179 188 178 178 189 185 177 163 165 153 142 138 141 131 134 133 128 129 132 131 129 128 134 127 123 120 117 120 123 123 121 123 118 119 122 120 118 103 96 92 93 117 124 126 120 106 98 78 53 42 42 29 20 10 8 12 21 40 36 48 39 1 339 316 285 268 295 307 303 321 331 321 296 6 336 330 2 342 337 350 332 336 334 316
186 184 188 189 185 181 188 190 183 168 158 147 146 146 157 152 154 143 140 144 149 140 146 139 137 135 132 128 128 128 135 139 139 141 138 139 138 131 125 119 118 111 123 129 133 132 115 104 45 24 31 35 26 14 0 357 352 353 43 29 20 16 13 330 292 278 267 274 302 296 314 312 308 323 318 325 355 269 319 335 328 325 319 306 302
188 188 182 185 185 187 191 193 188 173 164 161 147 156 160 176 164 154 150 156 157 158 157 156 149 150 148 142 135 130 119 130 147 139 130 126 129 127 134 132 128 119 105 89 97 81 48 34 20 21 16 5 3 355 354 346 346 343 345 39 13 346 255 264 288 290 288 284 280 283 292 303 300 295 307 267 292 290 199 285 320 305 311 306 308
185 171 178 190 193 190 185 191 188 178 170 166 158 169 169 169 175 166 162 168 175 178 176 170 169 168 170 161 151 138 124 108 113 121 133 132 119 115 114 110 105 99 84 90 13 32 32 19 359 4 1 349 351 343 356 340 341 337 335 13 26 5 334 263 259 276 277 283 283 286 284 282 290 288 299 311 312 318 263 264 277 295 303 299 299
160 183 193 188 191 193 191 182 177 180 181 175 179 174 170 178 180 183 172 193 191 194 187 187 185 187 181 176 132 127 138 128 125 146 154 151 148 160 164 134 111 145 94 117 2 7 12 358 8 337 318 348 334 326 333 338 317 329 335 353 40 347 341 307 279 268 268 279 284 288 286 281 276 281 285 296 297 300 238 230 260 289 285 279 281
183 197 185 191 190 195 194 184 182 179 183 178 175 176 191 186 180 178 176 198 196 197 203 199 198 190 185 171 157 155 159 164 173 179 197 178 178 183 191 180 186 183 172 157 237 324 358 347 340 321 334 334 320 317 318 313 303 314 317 316 334 325 307 304 296 274 268 267 273 283 282 283 280 274 272 284 292 293 240 247 267 269 277 275 274
192 192 188 184 188 197 195 190 188 182 184 182 189 189 191 187 189 180 191 190 186 202 205 202 197 195 188 186 182 174 173 180 196 190 212 190 197 202 187 199 217 220 200 185 202 283 283 309 311 316 320 312 301 305 305 300 302 287 296 300 315 313 248 256 277 279 278 266 264 272 275 277 279 279 272 270 282 286 288 272 265 272 274 266 268
195 196 193 191 192 193 191 198 194 189 186 178 186 192 191 190 189 190 196 191 196 204 203 197 199 200 191 192 176 177 186 187 190 205 176 207 209 198 196 210 216 232 186 220 189 239 265 267 282 287 309 295 284 287 292 297 300 297 281 295 297 296 292 269 251 268 276 268 268 268 269 271 273 275 274 271 273 279 282 282 281 278 275 273 271
197 194 190 198 194 190 192 199 196 191 188 181 188 188 193 194 197 198 198 188 206 207 199 203 207 192 200 192 197 184 186 184 195 196 184 212 209 207 208 217 216 222 194 219 219 208 245 265 276 276 279 281 291 274 284 287 294 290 297 293 294 282 278 279 281 261 257 267 260 265 270 266 266 267 267 270 270 272 276 279 282 281 278 279 276
188 193 194 197 194 191 200 197 199 193 184 192 188 194 189 199 198 196 191 199 204 203 208 210 206 204 201 191 194 198 188 185 188 190 202 209 207 200 217 218 231 230 207 234 203 211 225 232 235 243 249 263 269 295 319 303 298 301 294 298 284 302 290 287 285 281 272 261 260 259 264 266 264 262 265 265 267 268 271 275 279 280 282 285 285
193 197 193 187 187 196 199 198 196 191 191 196 191 192 195 201 196 191 199 201 198 202 208 213 213 211 202 193 193 199 189 192 188 187 195 203 211 211 221 202 232 228 208 224 224 217 220 240 251 254 262 278 287 299 321 302 297 290 303 291 298 294 287 291 290 288 285 282 268 262 263 268 268 266 264 266 266 268 269 272 274 277 279 280 283
202 194 191 184 190 192 196 199 194 191 196 197 193 197 195 195 193 200 200 194 199 203 208 213 218 216 206 198 195 192 193 190 198 194 193 197 202 210 224 229 238 230 216 222 225 218 234 255 263 234 273 292 306 294 319 297 284 288 298 283 297 286 284 293 285 287 281 276 277 269 264 262 263 272 271 267 267 266 267 268 270 274 277 280 282
194 196 190 197 190 191 193 193 195 194 199 200 196 195 195 194 195 200 199 193 198 201 214 215 215 219 208 206 199 194 193 197 184 205 195 197 199 201 214 241 244 243 231 200 207 203 218 228 251 264 271 288 279 288 316 300 282 286 285 281 291 277 292 292 275 272 275 276 271 272 269 265 261 260 263 267 264 264 265 265 267 269 273 275 279
194 197 201 197 188 191 187 196 191 198 199 203 198 201 195 190 192 197 201 200 200 204 212 213 214 217 207 213 205 197 198 191 183 175 187 185 193 209 212 232 232 213 226 223 216 201 217 238 243 248 276 272 259 268 275 276 279 278 277 281 278 276 273 268 282 278 273 271 272 269 266 265 263 262 262 263 267 263 261 265 267 269 270 273 275
204 204 204 194 197 193 188 194 189 197 199 202 201 199 195 193 192 195 197 200 203 207 208 208 208 205 203 210 207 201 196 193 183 172 165 175 177 193 217 222 219 185 208 217 213 233 213 228 222 198 258 261 251 264 235 256 259 272 280 291 283 284 283 280 275 275 271 277 272 272 269 265 265 261 261 263 263 263 260 263 266 266 270 274 277
208 205 203 201 203 199 191 194 193 196 197 201 201 199 191 191 192 193 196 195 201 208 208 201 198 195 199 203 200 197 197 188 183 181 174 176 174 185 209 207 186 192 200 208 194 211 235 250 245 243 269 282 279 269 266 252 269 274 292 288 282 287 279 272 269 267 280 270 270 268 268 269 263 265 262 261 265 268 274 270 269 271 274 275 276
214 212 207 204 207 202 201 200 197 195 196 196 197 196 196 192 193 194 192 196 203 203 203 192 199 196 190 200 190 190 200 185 174 182 186 188 193 189 203 202 173 183 212 196 243 251 197 200 257 252 216 230 255 257 267 281 286 291 286 277 278 274 269 268 264 266 262 268 267 267 266 269 267 261 263 267 268 279 281 280 280 282 281 278 276
213 212 211 212 210 210 207 207 202 198 198 194 193 194 192 197 196 194 198 206 207 206 198 201 205 199 197 201 187 187 200 192 170 170 194 203 223 234 226 217 167 178 188 203 220 212 215 219 224 263 237 224 239 256 273 300 296 291 284 278 282 281 278 270 266 264 260 260 272 276 289 270 268 271 273 272 276 283 284 283 286 285 282 281 280
212 208 211 210 212 213 209 209 208 199 193 191 182 189 186 192 199 210 221 216 210 205 207 206 195 200 201 200 203 201 195 196 180 183 194 214 224 227 227 211 189 193 209 219 242 224 227 232 244 237 261 276 243 257 257 273 281 277 277 282 273 277 280 272 275 266 273 276 269 278 272 278 275 277 271 272 278 275 277 279 279 277 279 281 281
211 206 207 211 209 208 201 212 206 193 188 189 191 189 195 200 209 208 211 202 208 208 212 205 202 200 197 202 205 209 206 212 223 209 216 216 216 217 216 236 219 202 217 226 227 248 248 233 250 208 243 283 293 223 256 205 288 297 271 267 289 260 261 275 270 277 276 271 273 273 275 286 276 274 275 274 271 268 266 269 271 274 274 276 279
213 203 209 211 208 208 207 210 195 195 198 196 192 194 198 199 196 208 203 199 201 208 216 206 206 200 200 207 213 209 203 204 204 200 210 209 218 220 218 232 228 231 226 236 236 233 241 241 218 270 198 221 258 240 214 118 289 244 314 316 292 267 256 255 268 274 272 272 269 268 276 279 283 278 280 277 272 267 266 266 268 268 270 272 271
205 204 210 207 208 207 211 207 200 196 202 198 192 202 200 199 193 194 191 206 224 214 210 194 187 198 203 208 213 210 202 207 206 199 201 201 206 210 225 233 241 207 212 240 248 264 244 240 205 217 259 206 239 249 200 184 247 270 302 321 308 331 332 326 317 280 260 262 264 276 283 288 280 281 286 295 283 282 281 269 266 269 273 271 270
207 209 206 206 207 210 208 205 203 201 200 199 200 203 197 193 198 185 194 182 188 203 205 185 186 199 213 207 215 208 199 209 213 207 202 200 198 209 221 225 238 214 221 245 246 238 235 241 228 238 218 282 237 268 190 185 218 320 318 183 289 350 312 298 308 286 227 266 300 286 294 287 289 296 316 290 289 294 283 278 276 279 279 275 272
208 207 203 204 204 208 208 203 202 201 202 197 198 186 160 158 147 83 87 129 19 137 190 228 205 199 204 208 217 214 209 205 211 210 203 209 212 222 221 219 220 215 197 228 235 239 238 241 210 184 201 227 270 301 328 182 225 229 257 323 316 325 231 290 338 308 331 3 304 287 295 279 282 291 301 288 287 282 281 285 282 279 274 274 273
213 210 204 203 203 207 203 204 205 202 202 198 190 175 181 178 170 182 193 202 213 203 216 217 193 208 217 193 208 204 213 220 215 212 210 219 222 219 219 222 221 217 228 230 215 264 277 271 219 213 227 237 243 290 288 43 203 215 216 219 240 284 316 326 344 306 346 265 286 314 305 301 292 291 282 278 277 274 267 276 275 278 279 278 275
217 206 204 205 206 204 198 198 202 204 201 194 181 179 187 191 192 197 202 206 215 228 155 142 176 212 200 202 211 205 211 213 219 212 217 217 218 220 227 241 291 341 83 69 352 262 235 217 174 183 207 148 146 244 287 317 333 255 239 263 282 288 314 326 299 306 312 312 343 300 297 297 307 310 301 284 276 279 276 268 280 277 278 274 273
209 194 200 202 203 203 195 196 198 198 195 185 181 187 192 195 197 204 205 207 211 205 167 191 192 175 183 209 190 191 200 212 213 212 209 214 220 217 162 139 120 127 137 110 81 29 59 49 64 127 111 95 132 140 314 338 2 305 93 286 282 276 260 248 245 281 291 306 311 263 240 291 308 294 290 297 299 292 287 281 278 280 273 271 268
201 197 200 200 200 200 198 192 195 192 192 182 183 192 197 194 196 196 203 212 188 179 165 143 151 156 143 139 141 138 120 129 163 168 164 156 147 128 120 120 104 72 90 85 76 70 76 83 82 90 77 64 60 71 61 359 3 354 340 356 322 319 316 259 283 236 302 309 300 317 313 286 262 284 288 260 276 288 294 292 276 269 278 279 276
211 206 209 200 198 190 194 190 199 192 188 185 186 192 194 187 193 195 199 188 151 129 150 154 151 154 146 150 138 133 132 107 87 96 107 109 113 119 117 101 101 95 83 104 100 96 88 93 87 70 71 85 64 68 68 41 50 40 24 299 14 332 336 359 13 336 264 240 284 318 318 323 318 301 301 289 259 275 285 291 295 289 273 267 274
203 188 195 192 191 193 193 197 200 191 186 188 185 191 189 190 195 192 191 178 172 159 148 144 135 140 152 160 150 132 117 110 103 75 77 101 97 94 107 104 102 110 105 98 114 121 124 88 75 86 81 77 72 81 71 53 50 57 47 42 35 28 20 347 337 345 338 319 318 308 313 315 312 311 290 267 300 282 268 271 272 280 285 288 283